Time,TemperatureF,DewpointF,PressureIn,WindDirection,WindDirectionDegrees,WindSpeedMPH,WindSpeedGustMPH,Humidity,HourlyPrecipIn,Conditions,Clouds,dailyrainin,SoftwareType,DateUTC
2013-04-21 00:03:00,32.0,27.0,-100.00,WNW,285,0.0,4.0,82,0.00,,,-99.99,,2013-04-21 04:03:00,
2013-04-21 00:12:00,32.0,27.0,-100.00,WNW,285,0.0,4.0,79,0.00,,,-99.99,,2013-04-21 04:12:00,
2013-04-21 00:23:00,31.0,27.0,-100.00,SE,140,0.0,5.0,82,0.00,,,-99.99,,2013-04-21 04:23:00,
2013-04-21 00:33:00,32.0,26.0,-100.00,West,270,0.0,2.0,80,0.00,,,-99.99,,2013-04-21 04:33:00,
2013-04-21 00:42:00,31.0,26.0,-100.00,North,0,0.0,4.0,81,0.00,,,-99.99,,2013-04-21 04:42:00,
2013-04-21 00:52:00,31.0,26.0,-100.00,NE,50,1.0,1.0,81,0.00,,,-99.99,,2013-04-21 04:52:00,
2013-04-21 01:02:00,31.0,26.0,-100.00,North,355,0.0,3.0,82,0.00,,,-99.99,,2013-04-21 05:02:00,
2013-04-21 01:12:00,30.0,26.0,-100.00,West,280,0.0,2.0,84,0.00,,,-99.99,,2013-04-21 05:12:00,
2013-04-21 01:22:00,31.0,26.0,-100.00,West,280,0.0,3.0,83,0.00,,,-99.99,,2013-04-21 05:22:00,
2013-04-21 01:32:00,31.0,26.0,-100.00,NE,55,1.0,2.0,82,0.00,,,-99.99,,2013-04-21 05:32:00,
2013-04-21 01:42:00,30.0,26.0,-100.00,WNW,285,0.0,1.0,84,0.00,,,-99.99,,2013-04-21 05:42:00,
2013-04-21 01:52:00,30.0,26.0,-100.00,WNW,285,0.0,3.0,84,0.00,,,-99.99,,2013-04-21 05:52:00,
2013-04-21 02:01:00,30.0,26.0,-100.00,NW,315,0.0,1.0,87,0.00,,,-99.99,,2013-04-21 06:01:00,
2013-04-21 02:12:00,31.0,26.0,-100.00,NNE,15,0.0,2.0,82,0.00,,,-99.99,,2013-04-21 06:12:00,
2013-04-21 02:22:00,31.0,26.0,-100.00,West,275,0.0,4.0,80,0.00,,,-99.99,,2013-04-21 06:22:00,
2013-04-21 02:32:00,31.0,25.0,-100.00,South,170,0.0,2.0,80,0.00,,,-99.99,,2013-04-21 06:32:00,
2013-04-21 02:42:00,31.0,25.0,-100.00,NNE,25,0.0,3.0,77,0.00,,,-99.99,,2013-04-21 06:42:00,
2013-04-21 02:51:00,32.0,25.0,-100.00,NE,35,0.0,2.0,75,0.00,,,-99.99,,2013-04-21 06:51:00,
2013-04-21 03:02:00,31.0,25.0,-100.00,NW,305,0.0,2.0,77,0.00,,,-99.99,,2013-04-21 07:02:00,
2013-04-21 03:12:00,30.0,25.0,-100.00,NNE,30,0.0,1.0,80,0.00,,,-99.99,,2013-04-21 07:12:00,
2013-04-21 03:21:00,30.0,25.0,-100.00,West,275,1.0,4.0,82,0.00,,,-99.99,,2013-04-21 07:21:00,
2013-04-21 03:32:00,30.0,25.0,-100.00,ENE,60,1.0,3.0,81,0.00,,,-99.99,,2013-04-21 07:32:00,
2013-04-21 03:42:00,29.0,25.0,-100.00,ENE,70,1.0,2.0,84,0.00,,,-99.99,,2013-04-21 07:42:00,
2013-04-21 03:52:00,29.0,25.0,-100.00,ENE,70,1.0,2.0,85,0.00,,,-99.99,,2013-04-21 07:52:00,
2013-04-21 04:01:00,29.0,25.0,-100.00,ENE,75,0.0,1.0,86,0.00,,,-99.99,,2013-04-21 08:01:00,
2013-04-21 04:12:00,29.0,25.0,-100.00,NE,50,0.0,2.0,84,0.00,,,-99.99,,2013-04-21 08:12:00,
2013-04-21 04:21:00,30.0,25.0,-100.00,NE,55,0.0,2.0,81,0.00,,,-99.99,,2013-04-21 08:21:00,
2013-04-21 04:32:00,29.0,24.0,-100.00,East,80,0.0,1.0,81,0.00,,,-99.99,,2013-04-21 08:32:00,
2013-04-21 04:42:00,29.0,25.0,-100.00,SSW,195,0.0,1.0,83,0.00,,,-99.99,,2013-04-21 08:42:00,
2013-04-21 04:52:00,30.0,25.0,-100.00,NE,50,0.0,1.0,80,0.00,,,-99.99,,2013-04-21 08:52:00,
2013-04-21 05:02:00,29.0,24.0,-100.00,East,80,0.0,1.0,82,0.00,,,-99.99,,2013-04-21 09:02:00,
2013-04-21 05:12:00,29.0,24.0,-100.00,West,280,0.0,2.0,82,0.00,,,-99.99,,2013-04-21 09:12:00,
2013-04-21 05:21:00,29.0,24.0,-100.00,West,280,0.0,2.0,82,0.00,,,-99.99,,2013-04-21 09:21:00,
2013-04-21 05:32:00,28.0,24.0,-100.00,NNW,335,0.0,3.0,85,0.00,,,-99.99,,2013-04-21 09:32:00,
2013-04-21 05:43:00,28.0,24.0,-100.00,ENE,70,1.0,2.0,85,0.00,,,-99.99,,2013-04-21 09:43:00,
2013-04-21 05:52:00,28.0,24.0,-100.00,West,275,0.0,3.0,85,0.00,,,-99.99,,2013-04-21 09:52:00,
2013-04-21 06:03:00,28.0,24.0,-100.00,WNW,295,0.0,3.0,85,0.00,,,-99.99,,2013-04-21 10:03:00,
2013-04-21 06:12:00,27.0,24.0,-100.00,WNW,300,0.0,2.0,87,0.00,,,-99.99,,2013-04-21 10:12:00,
2013-04-21 06:22:00,28.0,24.0,-100.00,NNE,25,0.0,2.0,88,0.00,,,-99.99,,2013-04-21 10:22:00,
2013-04-21 06:32:00,27.0,24.0,-100.00,NE,50,0.0,1.0,88,0.00,,,-99.99,,2013-04-21 10:32:00,
2013-04-21 06:42:00,27.0,24.0,-100.00,NNW,335,0.0,3.0,88,0.00,,,-99.99,,2013-04-21 10:42:00,
2013-04-21 06:52:00,27.0,24.0,-100.00,NW,310,0.0,1.0,89,0.00,,,-99.99,,2013-04-21 10:52:00,
2013-04-21 07:03:00,26.0,24.0,-100.00,NNW,340,0.0,2.0,90,0.00,,,-99.99,,2013-04-21 11:03:00,
2013-04-21 07:12:00,27.0,25.0,-100.00,East,90,0.0,2.0,90,0.00,,,-99.99,,2013-04-21 11:12:00,
2013-04-21 07:22:00,27.0,24.0,-100.00,NE,50,1.0,2.0,87,0.00,,,-99.99,,2013-04-21 11:22:00,
2013-04-21 07:34:00,28.0,25.0,-100.00,West,280,1.0,5.0,89,0.55,,,-99.99,,2013-04-21 11:34:00,
2013-04-21 07:42:00,28.0,25.0,-100.00,NE,50,0.0,3.0,87,0.00,,,-99.99,,2013-04-21 11:42:00,
2013-04-21 07:52:00,28.0,25.0,-100.00,West,280,0.0,1.0,86,0.00,,,-99.99,,2013-04-21 11:52:00,
2013-04-21 08:02:00,29.0,25.0,-100.00,NE,50,0.0,4.0,83,0.55,,,-99.99,,2013-04-21 12:02:00,
2013-04-21 08:12:00,31.0,26.0,-100.00,NE,45,1.0,1.0,80,0.00,,,-99.99,,2013-04-21 12:12:00,
2013-04-21 08:22:00,32.0,26.0,-100.00,NE,50,1.0,2.0,78,0.00,,,-99.99,,2013-04-21 12:22:00,
2013-04-21 08:32:00,33.0,26.0,-100.00,NE,45,1.0,2.0,76,0.00,,,-99.99,,2013-04-21 12:32:00,
2013-04-21 08:42:00,34.0,27.0,-100.00,NE,40,1.0,3.0,75,0.00,,,-99.99,,2013-04-21 12:42:00,
2013-04-21 08:52:00,35.0,27.0,-100.00,NE,55,2.0,6.0,71,0.00,,,-99.99,,2013-04-21 12:52:00,
2013-04-21 09:01:00,37.0,26.0,-100.00,ESE,105,4.0,7.0,64,0.00,,,-99.99,,2013-04-21 13:01:00,
2013-04-21 09:12:00,37.0,25.0,-100.00,ENE,70,6.0,10.0,60,0.00,,,-99.99,,2013-04-21 13:12:00,
2013-04-21 09:21:00,38.0,25.0,-100.00,ESE,110,4.0,11.0,59,0.00,,,-99.99,,2013-04-21 13:21:00,
2013-04-21 09:32:00,38.0,24.0,-100.00,ESE,115,4.0,9.0,58,0.00,,,-99.99,,2013-04-21 13:32:00,
2013-04-21 09:42:00,39.0,27.0,-100.00,ESE,115,3.0,9.0,61,0.00,,,-99.99,,2013-04-21 13:42:00,
2013-04-21 09:52:00,38.0,23.0,-100.00,ENE,75,7.0,12.0,54,0.00,,,-99.99,,2013-04-21 13:52:00,
2013-04-21 10:02:00,39.0,24.0,-100.00,SE,135,4.0,12.0,54,0.00,,,-99.99,,2013-04-21 14:02:00,
2013-04-21 10:11:00,41.0,24.0,-100.00,East,80,4.0,6.0,51,0.00,,,-99.99,,2013-04-21 14:11:00,
2013-04-21 10:21:00,40.0,23.0,-100.00,ENE,75,9.0,13.0,49,0.00,,,-99.99,,2013-04-21 14:21:00,
2013-04-21 10:32:00,43.0,26.0,-100.00,ESE,110,4.0,11.0,52,0.00,,,-99.99,,2013-04-21 14:32:00,
2013-04-21 10:42:00,42.0,24.0,-100.00,SE,145,5.0,12.0,49,0.00,,,-99.99,,2013-04-21 14:42:00,
2013-04-21 10:52:00,42.0,24.0,-100.00,SE,125,4.0,11.0,48,0.00,,,-99.99,,2013-04-21 14:52:00,
2013-04-21 11:02:00,43.0,22.0,-100.00,East,95,6.0,14.0,43,0.00,,,-99.99,,2013-04-21 15:02:00,
2013-04-21 11:11:00,43.0,23.0,-100.00,ESE,105,4.0,7.0,44,0.00,,,-99.99,,2013-04-21 15:11:00,
2013-04-21 11:22:00,43.0,22.0,-100.00,East,85,2.0,12.0,43,0.00,,,-99.99,,2013-04-21 15:22:00,
2013-04-21 11:33:00,44.0,23.0,-100.00,ESE,105,4.0,10.0,41,0.00,,,-99.99,,2013-04-21 15:33:00,
2013-04-21 11:43:00,44.0,22.0,-100.00,East,100,4.0,9.0,41,0.00,,,-99.99,,2013-04-21 15:43:00,
2013-04-21 11:53:00,44.0,23.0,-100.00,East,80,6.0,13.0,42,0.00,,,-99.99,,2013-04-21 15:53:00,
2013-04-21 12:03:00,45.0,21.0,-100.00,SE,135,2.0,12.0,38,0.00,,,-99.99,,2013-04-21 16:03:00,
2013-04-21 12:12:00,47.0,24.0,-100.00,East,95,4.0,8.0,39,0.00,,,-99.99,,2013-04-21 16:12:00,
2013-04-21 12:23:00,45.0,21.0,-100.00,NE,45,5.0,14.0,38,0.00,,,-99.99,,2013-04-21 16:23:00,
2013-04-21 12:33:00,46.0,22.0,-100.00,North,5,4.0,10.0,37,0.00,,,-99.99,,2013-04-21 16:33:00,
2013-04-21 12:42:00,45.0,23.0,-100.00,SSW,205,3.0,7.0,41,0.00,,,-99.99,,2013-04-21 16:42:00,
2013-04-21 12:52:00,48.0,24.0,-100.00,NNE,30,4.0,9.0,39,0.00,,,-99.99,,2013-04-21 16:52:00,
2013-04-21 13:02:00,48.0,23.0,-100.00,South,175,2.0,9.0,37,0.00,,,-99.99,,2013-04-21 17:02:00,
2013-04-21 13:12:00,47.0,23.0,-100.00,SE,140,6.0,8.0,38,0.00,,,-99.99,,2013-04-21 17:12:00,
2013-04-21 13:23:00,47.0,21.0,-100.00,SW,220,2.0,6.0,35,0.00,,,-99.99,,2013-04-21 17:23:00,
2013-04-21 13:32:00,49.0,24.0,-100.00,NNE,20,4.0,9.0,38,0.00,,,-99.99,,2013-04-21 17:32:00,
2013-04-21 13:42:00,48.0,21.0,-100.00,ENE,70,8.0,14.0,33,0.00,,,-99.99,,2013-04-21 17:42:00,
2013-04-21 13:52:00,48.0,22.0,-100.00,East,85,4.0,10.0,35,0.00,,,-99.99,,2013-04-21 17:52:00,
2013-04-21 14:02:00,48.0,24.0,-100.00,ESE,115,3.0,11.0,38,0.00,,,-99.99,,2013-04-21 18:02:00,
2013-04-21 14:11:00,48.0,21.0,-100.00,ENE,65,3.0,11.0,34,0.00,,,-99.99,,2013-04-21 18:11:00,
2013-04-21 14:22:00,49.0,24.0,-100.00,SE,135,4.0,12.0,37,0.00,,,-99.99,,2013-04-21 18:22:00,
2013-04-21 14:32:00,49.0,22.0,-100.00,SE,130,3.0,9.0,33,0.00,,,-99.99,,2013-04-21 18:32:00,
2013-04-21 14:42:00,49.0,22.0,-100.00,SE,135,4.0,7.0,34,0.00,,,-99.99,,2013-04-21 18:42:00,
2013-04-21 14:52:00,51.0,22.0,-100.00,East,95,2.0,6.0,32,0.00,,,-99.99,,2013-04-21 18:52:00,
2013-04-21 15:02:00,49.0,22.0,-100.00,SE,135,4.0,6.0,33,0.00,,,-99.99,,2013-04-21 19:02:00,
2013-04-21 15:12:00,50.0,23.0,-100.00,ENE,65,4.0,10.0,34,0.00,,,-99.99,,2013-04-21 19:12:00,
2013-04-21 15:21:00,51.0,23.0,-100.00,SE,145,4.0,7.0,33,0.00,,,-99.99,,2013-04-21 19:21:00,
2013-04-21 15:32:00,51.0,23.0,-100.00,SE,125,1.0,7.0,33,0.00,,,-99.99,,2013-04-21 19:32:00,
2013-04-21 15:42:00,52.0,25.0,-100.00,ESE,110,1.0,7.0,34,0.00,,,-99.99,,2013-04-21 19:42:00,
2013-04-21 15:52:00,51.0,25.0,-100.00,SSE,150,2.0,6.0,35,0.00,,,-99.99,,2013-04-21 19:52:00,
2013-04-21 16:02:00,52.0,24.0,-100.00,NE,50,6.0,9.0,32,0.00,,,-99.99,,2013-04-21 20:02:00,
2013-04-21 16:11:00,53.0,22.0,-100.00,NNE,20,4.0,8.0,29,0.00,,,-99.99,,2013-04-21 20:11:00,
2013-04-21 16:22:00,52.0,21.0,-100.00,NE,55,6.0,11.0,29,0.00,,,-99.99,,2013-04-21 20:22:00,
2013-04-21 16:32:00,53.0,22.0,-100.00,ESE,120,1.0,6.0,30,0.00,,,-99.99,,2013-04-21 20:32:00,
2013-04-21 16:42:00,53.0,24.0,-100.00,ENE,60,4.0,7.0,31,0.00,,,-99.99,,2013-04-21 20:42:00,
2013-04-21 16:52:00,52.0,22.0,-100.00,SE,140,4.0,9.0,30,0.00,,,-99.99,,2013-04-21 20:52:00,
2013-04-21 17:02:00,51.0,23.0,-100.00,SSE,155,4.0,12.0,33,0.00,,,-99.99,,2013-04-21 21:02:00,
2013-04-21 17:12:00,52.0,22.0,-100.00,SE,135,2.0,10.0,30,0.00,,,-99.99,,2013-04-21 21:12:00,
2013-04-21 17:22:00,53.0,22.0,-100.00,South,185,2.0,4.0,29,0.00,,,-99.99,,2013-04-21 21:22:00,
2013-04-21 17:33:00,53.0,24.0,-100.00,North,10,8.0,17.0,31,0.00,,,-99.99,,2013-04-21 21:33:00,
2013-04-21 17:43:00,53.0,23.0,-100.00,NNW,345,2.0,11.0,29,0.00,,,-99.99,,2013-04-21 21:43:00,
2013-04-21 17:53:00,52.0,21.0,-100.00,ENE,75,6.0,9.0,29,0.00,,,-99.99,,2013-04-21 21:53:00,
2013-04-21 18:03:00,53.0,20.0,-100.00,ENE,75,4.0,7.0,26,0.00,,,-99.99,,2013-04-21 22:03:00,
2013-04-21 18:12:00,53.0,22.0,-100.00,ESE,115,2.0,9.0,29,0.00,,,-99.99,,2013-04-21 22:12:00,
2013-04-21 18:22:00,54.0,23.0,-100.00,East,80,4.0,11.0,30,0.00,,,-99.99,,2013-04-21 22:22:00,
2013-04-21 18:33:00,53.0,21.0,-100.00,East,80,7.0,11.0,27,0.00,,,-99.99,,2013-04-21 22:33:00,
2013-04-21 18:43:00,53.0,23.0,-100.00,ENE,70,6.0,9.0,30,0.00,,,-99.99,,2013-04-21 22:43:00,
2013-04-21 18:52:00,52.0,25.0,-100.00,SE,125,3.0,6.0,33,0.00,,,-99.99,,2013-04-21 22:52:00,
2013-04-21 19:02:00,52.0,24.0,-100.00,SE,140,2.0,6.0,33,0.00,,,-99.99,,2013-04-21 23:02:00,
2013-04-21 19:12:00,53.0,23.0,-100.00,ENE,75,1.0,4.0,30,0.00,,,-99.99,,2013-04-21 23:12:00,
2013-04-21 19:22:00,52.0,22.0,-100.00,ESE,105,2.0,11.0,30,0.00,,,-99.99,,2013-04-21 23:22:00,
2013-04-21 19:32:00,51.0,23.0,-100.00,East,85,2.0,6.0,32,0.00,,,-99.99,,2013-04-21 23:32:00,
2013-04-21 19:42:00,51.0,20.0,-100.00,ESE,120,2.0,3.0,29,0.00,,,-99.99,,2013-04-21 23:42:00,
2013-04-21 19:52:00,51.0,22.0,-100.00,East,90,2.0,6.0,32,0.00,,,-99.99,,2013-04-21 23:52:00,
2013-04-21 20:01:00,51.0,22.0,-100.00,NE,55,2.0,7.0,32,0.00,,,-99.99,,2013-04-22 00:01:00,
2013-04-21 20:11:00,51.0,23.0,-100.00,ENE,75,1.0,4.0,33,0.00,,,-99.99,,2013-04-22 00:11:00,
2013-04-21 20:22:00,51.0,24.0,-100.00,ESE,105,1.0,7.0,34,0.00,,,-99.99,,2013-04-22 00:22:00,
2013-04-21 20:32:00,50.0,24.0,-100.00,NE,55,1.0,6.0,35,0.00,,,-99.99,,2013-04-22 00:32:00,
2013-04-21 20:42:00,49.0,23.0,-100.00,North,10,1.0,5.0,35,0.00,,,-99.99,,2013-04-22 00:42:00,
2013-04-21 20:51:00,49.0,24.0,-100.00,East,80,1.0,4.0,37,0.00,,,-99.99,,2013-04-22 00:51:00,
2013-04-21 21:01:00,49.0,24.0,-100.00,NE,50,1.0,3.0,37,0.00,,,-99.99,,2013-04-22 01:01:00,
2013-04-21 21:12:00,48.0,24.0,-100.00,ENE,70,1.0,5.0,38,0.00,,,-99.99,,2013-04-22 01:12:00,
2013-04-21 21:21:00,48.0,24.0,-100.00,NE,50,1.0,5.0,39,0.00,,,-99.99,,2013-04-22 01:21:00,
2013-04-21 21:32:00,47.0,25.0,-100.00,WNW,285,2.0,7.0,42,0.00,,,-99.99,,2013-04-22 01:32:00,
2013-04-21 21:52:00,46.0,26.0,-100.00,West,280,1.0,5.0,45,0.00,,,-99.99,,2013-04-22 01:52:00,
2013-04-21 22:02:00,45.0,27.0,-100.00,NE,45,1.0,2.0,48,0.00,,,-99.99,,2013-04-22 02:02:00,
2013-04-21 22:11:00,45.0,26.0,-100.00,ENE,60,0.0,6.0,46,0.00,,,-99.99,,2013-04-22 02:11:00,
2013-04-21 22:21:00,46.0,26.0,-100.00,ENE,70,1.0,3.0,45,0.00,,,-99.99,,2013-04-22 02:21:00,
2013-04-21 22:32:00,45.0,26.0,-100.00,NNW,340,1.0,6.0,48,0.00,,,-99.99,,2013-04-22 02:32:00,
2013-04-21 22:42:00,45.0,26.0,-100.00,ENE,70,1.0,4.0,48,0.00,,,-99.99,,2013-04-22 02:42:00,
2013-04-21 22:52:00,44.0,26.0,-100.00,East,85,2.0,3.0,48,0.00,,,-99.99,,2013-04-22 02:52:00,
2013-04-21 23:02:00,44.0,27.0,-100.00,ENE,60,1.0,4.0,51,0.00,,,-99.99,,2013-04-22 03:02:00,
2013-04-21 23:11:00,43.0,26.0,-100.00,ENE,65,2.0,3.0,51,0.00,,,-99.99,,2013-04-22 03:11:00,
2013-04-21 23:22:00,44.0,25.0,-100.00,ENE,60,2.0,3.0,46,0.00,,,-99.99,,2013-04-22 03:22:00,
2013-04-21 23:33:00,44.0,25.0,-100.00,ENE,60,2.0,3.0,46,0.00,,,-99.99,,2013-04-22 03:33:00,
2013-04-21 23:43:00,43.0,25.0,-100.00,ESE,115,1.0,6.0,49,0.00,,,-99.99,,2013-04-22 03:43:00,
2013-04-21 23:52:00,44.0,24.0,-100.00,East,90,1.0,3.0,46,0.00,,,-99.99,,2013-04-22 03:52:00,